TimeCST,TemperatureF,Dew PointF,Humidity,Sea Level PressureIn,VisibilityMPH,Wind Direction,Wind SpeedMPH,Gust SpeedMPH,PrecipitationIn,Events,Conditions,WindDirDegrees,DateUTC
12:15 AM,41.0,33.8,76,30.39,10.0,ENE,3.5,-,N/A,,Clear,60,2012-11-18 06:15:00
12:35 AM,41.0,33.8,76,30.39,10.0,NNE,3.5,-,N/A,,Clear,30,2012-11-18 06:35:00
12:55 AM,37.4,32.0,81,30.39,10.0,Calm,Calm,-,N/A,,Clear,0,2012-11-18 06:55:00
1:55 AM,37.4,33.8,87,30.38,10.0,North,4.6,-,N/A,,Clear,360,2012-11-18 07:55:00
2:35 AM,37.4,32.0,81,30.38,9.0,NNE,5.8,-,N/A,,Clear,30,2012-11-18 08:35:00
2:55 AM,37.4,32.0,81,30.38,7.0,NNE,5.8,-,N/A,,Clear,20,2012-11-18 08:55:00
3:35 AM,37.4,33.8,87,30.37,8.0,NNE,4.6,-,N/A,,Clear,20,2012-11-18 09:35:00
3:55 AM,37.4,32.0,81,30.37,8.0,NNE,4.6,-,N/A,,Clear,20,2012-11-18 09:55:00
4:15 AM,37.4,33.8,87,30.37,8.0,Calm,Calm,-,N/A,,Clear,0,2012-11-18 10:15:00
4:35 AM,37.4,33.8,87,30.37,10.0,NE,3.5,-,N/A,,Clear,40,2012-11-18 10:35:00
4:55 AM,35.6,32.0,87,30.38,5.0,North,3.5,-,N/A,,Clear,350,2012-11-18 10:55:00
5:15 AM,35.6,30.2,81,30.38,6.0,NNW,5.8,-,N/A,,Clear,330,2012-11-18 11:15:00
5:35 AM,35.6,30.2,81,30.39,7.0,NNW,5.8,-,N/A,,Clear,340,2012-11-18 11:35:00
5:55 AM,35.6,30.2,81,30.38,9.0,North,6.9,-,N/A,,Clear,350,2012-11-18 11:55:00
6:35 AM,33.8,30.2,87,30.40,5.0,North,4.6,-,N/A,,Clear,360,2012-11-18 12:35:00
6:55 AM,35.6,30.2,81,30.39,5.0,NNE,5.8,-,N/A,,Clear,20,2012-11-18 12:55:00
7:16 AM,35.6,30.2,81,30.39,5.0,NNE,5.8,-,N/A,,Clear,30,2012-11-18 13:16:00
7:35 AM,35.6,33.8,93,30.39,5.0,NE,3.5,-,N/A,,Clear,40,2012-11-18 13:35:00
7:55 AM,39.2,35.6,87,30.39,5.0,NE,4.6,-,N/A,,Clear,50,2012-11-18 13:55:00
8:35 AM,42.8,37.4,81,30.39,10.0,NE,3.5,-,N/A,,Clear,40,2012-11-18 14:35:00
8:55 AM,44.6,39.2,81,30.40,10.0,NE,3.5,-,N/A,,Clear,50,2012-11-18 14:55:00
9:35 AM,48.2,39.2,71,30.40,10.0,NE,3.5,-,N/A,,Clear,50,2012-11-18 15:35:00
9:55 AM,51.8,39.2,62,30.40,9.0,Calm,Calm,-,N/A,,Clear,0,2012-11-18 15:55:00
10:15 AM,53.6,39.2,58,30.40,10.0,Calm,Calm,-,N/A,,Clear,0,2012-11-18 16:15:00
10:36 AM,55.4,39.2,54,30.41,10.0,Calm,Calm,-,N/A,,Clear,0,2012-11-18 16:36:00
11:35 AM,59.0,37.4,45,30.38,10.0,East,4.6,-,N/A,,Clear,100,2012-11-18 17:35:00
12:35 PM,62.6,37.4,39,30.36,5.0,SSE,8.1,-,N/A,,Clear,160,2012-11-18 18:35:00
12:55 PM,62.6,35.6,37,30.34,10.0,SE,8.1,-,N/A,,Clear,140,2012-11-18 18:55:00
1:15 PM,62.6,35.6,37,30.34,0.8,South,9.2,-,N/A,,Unknown,170,2012-11-18 19:15:00
1:35 PM,62.6,37.4,39,30.33,0.5,SE,8.1,-,N/A,,Unknown,130,2012-11-18 19:35:00
1:55 PM,62.6,35.6,37,30.33,1.2,SE,8.1,-,N/A,,Clear,140,2012-11-18 19:55:00
2:15 PM,62.6,35.6,37,30.33,1.5,SE,4.6,-,N/A,,Clear,140,2012-11-18 20:15:00
2:36 PM,62.6,35.6,37,30.33,1.0,SE,5.8,-,N/A,,Clear,140,2012-11-18 20:36:00
2:55 PM,62.6,35.6,37,30.33,1.0,South,5.8,-,N/A,,Clear,170,2012-11-18 20:55:00
3:15 PM,64.4,33.8,32,30.32,4.0,South,6.9,-,N/A,,Clear,180,2012-11-18 21:15:00
3:55 PM,62.6,37.4,39,30.31,3.0,SSE,4.6,-,N/A,,Clear,150,2012-11-18 21:55:00
4:15 PM,62.6,37.4,39,30.32,3.0,SSE,4.6,-,N/A,,Clear,160,2012-11-18 22:15:00
4:36 PM,60.8,37.4,42,30.32,5.0,South,3.5,-,N/A,,Clear,170,2012-11-18 22:36:00
4:55 PM,60.8,41.0,48,30.32,10.0,SSW,3.5,-,N/A,,Clear,200,2012-11-18 22:55:00
5:15 PM,57.2,39.2,51,30.32,10.0,Calm,Calm,-,N/A,,Clear,0,2012-11-18 23:15:00
5:35 PM,57.2,39.2,51,30.32,10.0,Calm,Calm,-,N/A,,Clear,0,2012-11-18 23:35:00
5:55 PM,55.4,39.2,54,30.32,4.0,Calm,Calm,-,N/A,,Clear,0,2012-11-18 23:55:00
6:15 PM,55.4,39.2,54,30.31,10.0,East,5.8,-,N/A,,Clear,80,2012-11-19 00:15:00
6:36 PM,55.4,39.2,54,30.32,10.0,ENE,5.8,-,N/A,,Clear,70,2012-11-19 00:36:00
6:55 PM,55.4,37.4,51,30.33,10.0,ENE,4.6,-,N/A,,Clear,70,2012-11-19 00:55:00
7:15 PM,53.6,39.2,58,30.33,10.0,East,5.8,-,N/A,,Clear,80,2012-11-19 01:15:00
7:55 PM,53.6,37.4,54,30.33,10.0,ESE,5.8,-,N/A,,Clear,110,2012-11-19 01:55:00
8:35 PM,51.8,37.4,58,30.32,10.0,ESE,6.9,-,N/A,,Clear,110,2012-11-19 02:35:00
8:56 PM,51.8,37.4,58,30.33,10.0,ESE,4.6,-,N/A,,Clear,110,2012-11-19 02:56:00
9:15 PM,53.6,37.4,54,30.33,10.0,East,5.8,-,N/A,,Clear,100,2012-11-19 03:15:00
9:35 PM,51.8,37.4,58,30.33,10.0,ESE,4.6,-,N/A,,Clear,110,2012-11-19 03:35:00
10:15 PM,50.0,39.2,66,30.33,8.0,Calm,Calm,-,N/A,,Clear,0,2012-11-19 04:15:00
10:35 PM,48.2,37.4,66,30.33,10.0,Calm,Calm,-,N/A,,Clear,0,2012-11-19 04:35:00
11:15 PM,48.2,37.4,66,30.33,8.0,Calm,Calm,-,N/A,,Clear,0,2012-11-19 05:15:00
11:35 PM,46.4,37.4,71,30.33,10.0,SSE,3.5,-,N/A,,Clear,150,2012-11-19 05:35:00
11:55 PM,46.4,37.4,71,30.33,10.0,Calm,Calm,-,N/A,,Clear,0,2012-11-19 05:55:00